MST,Max TemperatureF,Mean TemperatureF,Min TemperatureF,Max Dew PointF,MeanDew PointF,Min DewpointF,Max Humidity, Mean Humidity, Min Humidity, Max Sea Level PressureIn, Mean Sea Level PressureIn, Min Sea Level PressureIn, Max VisibilityMiles, Mean VisibilityMiles, Min VisibilityMiles, Max Wind SpeedMPH, Mean Wind SpeedMPH, Max Gust SpeedMPH,PrecipitationIn, CloudCover, Events, WindDirDegrees
2011-12-1,30,16,0,12,5,-5,91,60,32,30.52,30.38,30.14,10,10,10,17,10,23,0.00,0,,22
2011-12-2,25,10,-6,18,10,-11,93,81,42,30.30,29.99,29.78,10,4,0,17,4,21,0.02,5,Fog-Snow,4
2011-12-3,21,10,0,18,7,-5,93,73,57,30.25,30.12,29.94,10,9,1,21,5,,0.00,4,Snow,343
2011-12-4,18,10,1,12,6,-2,93,77,56,30.40,30.19,30.05,10,5,0,16,7,,0.00,8,Snow,139
2011-12-5,8,-4,-16,0,-9,-20,86,78,62,30.64,30.46,30.17,10,8,2,13,6,18,0.00,2,Snow,254
2011-12-6,19,2,-15,7,-5,-20,91,75,52,30.55,30.44,30.13,10,10,10,12,4,,0.00,0,,303
2011-12-7,30,12,-6,18,6,-10,87,77,58,30.55,30.36,30.11,10,10,10,7,3,,0.00,2,,303
2011-12-8,32,22,12,16,9,4,85,64,38,30.30,30.22,30.11,10,10,10,17,6,21,0.00,1,,358
2011-12-9,34,17,0,18,7,-5,95,70,49,30.52,30.41,30.25,10,10,10,20,5,26,0.00,0,,344
2011-12-10,26,10,-7,12,1,-12,95,79,55,30.62,30.47,30.21,10,10,10,10,4,,0.00,0,,11
2011-12-11,24,8,-7,12,0,-12,96,81,60,30.34,30.20,29.93,10,10,10,7,2,,0.00,0,,58
2011-12-12,26,10,-5,13,4,-9,91,78,58,30.28,30.15,29.95,10,10,8,5,1,,0.00,2,,51
2011-12-13,26,12,-2,23,12,-5,100,87,69,30.19,29.98,29.87,10,5,0,7,2,,0.00,6,Fog-Snow,264
2011-12-14,30,14,-2,18,5,-6,100,82,54,30.29,30.05,29.89,10,6,0,21,4,28,0.00,2,Fog,344
2011-12-15,24,9,-6,13,2,-10,95,81,62,30.47,30.27,30.12,10,8,0,16,2,,0.00,1,Fog,31
2011-12-16,28,14,0,13,5,-4,91,75,51,30.65,30.54,30.27,10,10,10,10,5,,0.00,0,,296
2011-12-17,32,16,0,17,8,-3,91,78,54,30.66,30.55,30.46,10,10,10,9,4,,0.00,0,,264
2011-12-18,33,16,0,18,7,-3,92,81,54,30.43,30.27,30.14,10,10,10,9,3,,0.00,0,,41
2011-12-19,30,14,-2,20,6,-6,96,84,61,30.44,30.24,30.11,10,8,1,10,4,,0.00,1,,88
2011-12-20,30,12,-5,20,9,-9,92,77,57,30.34,30.13,29.91,10,10,10,17,4,,0.00,0,,36
2011-12-21,25,18,12,17,11,3,88,70,50,30.18,29.93,29.80,10,9,1,21,8,26,0.00,6,Snow,346
2011-12-22,26,12,-6,3,-3,-11,79,62,32,30.63,30.41,30.20,10,10,10,16,7,,0.00,1,,29
2011-12-23,37,18,-2,7,0,-9,75,48,23,30.63,30.52,30.34,10,10,10,17,6,16,0.00,0,,12
2011-12-24,37,18,-2,16,5,-8,79,59,36,30.72,30.61,30.41,10,10,10,20,8,21,0.00,0,,344
2011-12-25,34,20,3,18,9,2,92,74,50,30.64,30.48,30.19,10,10,10,10,3,,0.00,0,,58
2011-12-26,37,19,1,14,6,-2,91,64,37,30.43,30.31,30.14,10,10,10,15,5,,0.00,0,,1
2011-12-27,33,18,3,19,9,-1,88,75,51,30.41,30.33,30.15,10,10,10,17,3,23,0.00,2,,354
2011-12-28,37,22,8,27,18,5,92,81,59,30.37,30.27,30.07,10,10,10,8,3,,0.00,5,,85
2011-12-29,39,29,16,30,21,6,87,66,48,30.12,29.98,29.88,10,10,10,30,11,41,0.00,3,,293
2011-12-30,46,29,12,27,18,6,77,63,42,30.11,29.92,29.60,10,10,10,22,6,33,0.00,5,,269
2011-12-31,28,14,-2,21,9,-6,86,70,43,30.62,30.13,29.65,10,9,2,26,17,37,0.00,3,Snow,322